Regional Weather Roundup
Issued by NWS

Home | Current Version | Previous Version | Graphics & Text | Print | Product List | Glossary On
Versions: 1 2 3 4 5 6 7 8 9 10 11 12 13 14 15 16 17 18 19 20 21 22 23 24 25 26 27 28 29 30 31 32 33 34 35 36 37 38 39 40 41 42 43 44 45 46 47 48 49 50
000
ASUS43 KLMK 231710
RWRKY
KENTUCKY REGIONAL WEATHER ROUNDUP
NATIONAL WEATHER SERVICE LOUISVILLE KY
100 PM EDT TUE MAY 23 2017

NOTE "FAIR" INDICATES FEW OR NO CLOUDS BELOW 12,000 FEET
WITH NO SIGNIFICANT WEATHER AND/OR OBSTRUCTIONS TO VISIBILITY.

KYZ001>023-026-027-061>063-070>075-231800-
WESTERN AND SOUTH CENTRAL KENTUCKY

CITY           SKY/WX    TMP DP  RH WIND       PRES   REMARKS
PADUCAH        MOSUNNY   76  51  41 CALM      29.74F
HENDERSON      SUNNY     72  51  47 VRB5      29.75F
OWENSBORO      PTSUNNY   71  46  40 CALM      29.76F
HOPKINSVILLE   CLOUDY    73  54  51 S3        29.74F
BOWLING GREEN  CLOUDY    73  59  61 SE3       29.75F
GLASGOW        MOSUNNY   71  58  64 CALM      29.76F
$$

KYZ024-025-028>034-038-045-046-053-231800-
NORTH CENTRAL KENTUCKY

CITY           SKY/WX    TMP DP  RH WIND       PRES   REMARKS
LOUISVILLE/SDF PTSUNNY   74  55  51 NE6       29.76F
LOUISVILLE/LOU MOSUNNY   73  55  53 N5        29.77F
FORT KNOX      MOSUNNY   71  55  57 E6        29.74F
$$

KYZ035>037-039>044-047>052-055>060-089>105-231800-
NORTHEAST KENTUCKY

CITY           SKY/WX    TMP DP  RH WIND       PRES   REMARKS
LEXINGTON      CLOUDY    71  56  58 SE3       29.78F
COVINGTON      PTSUNNY   71  50  47 SE8       29.78F
FRANKFORT      CLOUDY    72  55  55 E8        29.77F
$$

KYZ054-064>069-076>088-106>120-231800-
SOUTHEAST KENTUCKY

CITY           SKY/WX    TMP DP  RH WIND       PRES   REMARKS
JACKSON        CLOUDY    68  60  75 CALM      29.80F
LONDON         LGT RAIN  67  59  75 SW3       29.79S
SOMERSET       CLOUDY    64  57  77 S5        29.79F
MIDDLESBORO    CLOUDY    68  60  76 CALM      29.79F
MONTICELLO     LGT RAIN  68  61  78 N8        29.79F
$$





USA.gov is the U.S. government's official web portal to all federal, state and local government web resources and services.